Location: Cahas Mountain Overlook
(37.0833°N, 80.1000°W)
Time: 18:40:19
(UTC-04:00)

SR - Pass Details

Date: 09 February 2026
Orbit: 572 x 849 km, 66.7° (Epoch: 13 March)

Event Time Altitude Azimuth Distance (km) Brightness Sun altitude
Rises 16:14:07 0° 329° (NNW) 3,089 ? 17.1°
Reaches altitude 10° 16:16:24 10° 326° (NW) 2,211 ? 16.7°
Maximum altitude 16:21:25 66° 245° (WSW) 833 ? 15.9°
Drops below altitude 10° 16:26:49 10° 164° (SSE) 2,369 ? 15.0°
Sets 16:29:19 0° 162° (SSE) 3,328 ? 14.5°
